INTELSAT 22 (IS-22)

Last updated on Sun Apr 12 2026 00:02:52 GMT+0000 (Coordinated Universal Time)

1 38098U 12011A 26101.46365507 -.00000057 00000+0 00000+0 0 9990 2 38098 0.0242 116.1723 0001750 273.9967 48.5093 1.00271017 6515
UTC large
Height (km)
Speed (km/s)
/
Latitude / Longitude
Inclination (degrees)
Orbital Period (minutes)
Azimuth
Elevation
Range (km)
Doppler Factor

Next 0 passes for location: London (51.5072 / 0.1276)

Sorry there are no passes over London.
INTELSAT 22 (IS-22)